STARLINK-1299 (45418 NORAD) Tracking and Keplerian Element Data

This shows tracking and keplerian element data for the satellite.

Feedback or suggestion? Click here.




ElementValue
Catalog45418
NameSTARLINK-1299
Epoch Orbit1075
Epoch Day145.75001157
Epoch Year2020
RAAN298.0974
Inclination52.9872
Eccentricity0.0001549
Argument of Perigee90.1209
Mean Anonmoly74.7837
Mean Motion15.03954872
Decay Rate-2.609E-05
L11 45418U 20019BL 20145.75001157 -.00002609 00000-0 -16736-3 0 9997
L22 45418 52.9872 298.0974 0001549 90.1209 74.7837 15.03954872 10759

Live tracking and technical data element details for STARLINK-1299 (NORAD 45418). STARLINK-1299 can be tracked NOW for your location showing map with azimuth and elevation plus other details from your city location.

Track the satellite on the map from your city or location and see movement details for azimuth, elevation, latitude, longitude, range, height, and movement on the map or in text.







IsCatalogInMostPopularTable: catalog: 45418, numindb: 38
Update: records affected: 1



GetName: 45418 STARLINK-1299

Hit Count: updated at: Tue, 26 May 2020 02:02:28 GMT